Location: Oberkirch
(48.5323°N, 8.0787°E)
Time: 01:22:18
(UTC+00:00)

COSMOS 2428 - Pass Details

Date: 08 November 2025
Orbit: 847 x 852 km, 70.9° (Epoch: 13 December)

Event Time Altitude Azimuth Distance (km) Brightness Sun altitude
Exits shadow 04:41:24 - 220° (SW) 2,584 4.9 -17.3°
Reaches altitude 10° 04:41:42 10° 221° (SW) 2,467 4.8 -17.3°
Maximum altitude 04:47:19 62° 302° (WNW) 952 2.7 -16.3°
Drops below altitude 10° 04:52:58 10° 23° (NNE) 2,481 5.3 -15.4°
Sets 04:55:28 0° 27° (NNE) 3,420 6.1 -15.0°
